Flag for Germany Weather past 2 weeks in Wittlich, Rhineland-Palatinate, Germany

Now
74 °F

Sunny.


Feels Like: 77 °F
Forecast: 57 / 80 °F
Wind: 2 mph from Southwest

Location: Spangdahlem

Current Time: Jul 31, 2014 at 8:08:12 PM

Latest Report: Jul 31, 2014 at 6:58 PM


Visibility: N/A

Pressure: 29.90 "Hg

Humidity: 45%

Dew point: 51 °F

Location of WittlichLocation

Historic Weather in Wittlich — Graph

°F

Wittlich temperature yesterday

Maximum temperature yesterday: 73 °F (at 3:58 PM)
Minimum temperature yesterday: 61 °F (at 11:58 PM)
Average temperature yesterday: 66 °F

Past Weeks' High & Low Weather Summary

 TemperatureHumidityPressure
High88 °F (Jul 19, 2:58 PM)100% (Jul 21, 5:58 AM)30.17 "Hg (Jul 21, 5:58 AM)
Low53 °F (Jul 31, 4:58 AM)33% (Jul 18, 3:58 PM)29.75 "Hg (Jul 20, 2:58 AM)
Average69 °F74%29.91 "Hg
* Reported Jul 16 6:58 PM — Jul 31 6:58 PM, Wittlich, Weather by CustomWeather, © 2014

Note: Actual official high and low records may vary slightly from our data, if they occured in-between our weather recording intervals... More about our weather records

Advertising

Wittlich weather history for previous 24 hours

 ConditionsComfort  
Time TempWeatherWind HumidityBarometerVisibility
6:58 PM
Jul 31
74 °FSunny.2 mph45%29.90 "HgN/A
5:58 PM75 °FSunny.2 mph42%29.91 "HgN/A
4:58 PM74 °FSunny.6 mph41%29.93 "HgN/A
3:58 PM73 °FSunny.No wind51%29.94 "HgN/A
2:58 PM73 °FSunny.5 mph50%29.95 "HgN/A
1:58 PM71 °FSunny.5 mph57%29.96 "HgN/A
12:58 PM69 °FPassing clouds.3 mph62%29.97 "HgN/A
11:58 AM68 °FPassing clouds.2 mph64%29.98 "HgN/A
11:02 AM64 °FPartly sunny.No wind78%30.05 "HgN/A
9:58 AM63 °FSunny.3 mph83%29.99 "HgN/A
8:58 AM61 °FSunny.3 mph85%30.04 "HgN/A
7:58 AM59 °FPartly sunny.2 mph88%29.98 "HgN/A
6:58 AM55 °FFog.No wind94%29.99 "Hg6 mi
5:58 AM55 °FClear.1 mph88%29.98 "HgN/A
4:58 AM53 °FClear.No wind96%29.97 "HgN/A
3:58 AM57 °FClear.2 mph88%29.96 "HgN/A
2:58 AM57 °FClear.No wind90%29.98 "HgN/A
1:58 AM57 °FClear.No wind89%29.96 "HgN/A
12:58 AM60 °FClear.No wind80%29.96 "HgN/A
11:58 PM
Jul 30
61 °FClear.No wind78%29.96 "HgN/A
10:58 PM63 °FPassing clouds.1 mph74%29.96 "HgN/A
9:58 PM64 °FOvercast.5 mph73%29.94 "HgN/A
8:58 PM66 °FPassing clouds.2 mph69%29.93 "HgN/A
8:00 PM68 °FBroken clouds.7 mph64%29.96 "HgN/A
Weather by CustomWeather, © 2014

See weather overviewHow to use our weather pages